User: anonymous   Login
Location: Betz
(49.1556°N, 2.9558°E)
Time: 00:47:20
(UTC+00:00)
Language:

Cosmos 2181 Rocket - Orbit

View from above orbital plane
View from above orbital plane
View from above satellite
View from above satellite

Ground track
Ground track

The orbit data is extracted from the following two-line orbital elements,

1 21903U 92012B   19316.95120150  .00000051  00000-0  37488-4 0  9992
2 21903  82.9374 252.7694 0043041 161.1340 242.9016 13.74507455388287
Epoch (UTC): 12 November 2019 22:49:43
Eccentricity: 0.0043041
inclination: 82.9374°
perigee height: 952 km
apogee height: 1015 km
right ascension of ascending node: 252.7694°
argument of perigee: 161.1340°
revolutions per day: 13.74507455
mean anomaly at epoch: 242.9016°
orbit number at epoch: 38828

The dashed part of the orbit path shows where the satellite is in the earth's shadow,  

DLR